TimeCST,TemperatureF,Dew PointF,Humidity,Sea Level PressureIn,VisibilityMPH,Wind Direction,Wind SpeedMPH,Gust SpeedMPH,PrecipitationIn,Events,Conditions,WindDirDegrees,DateUTC
12:52 AM,37.0,32.0,82,30.05,10.0,NW,5.8,-,N/A,,Overcast,320,2011-11-30 06:52:00
1:34 AM,37.4,32.0,81,30.05,10.0,West,4.6,-,N/A,,Overcast,270,2011-11-30 07:34:00
1:41 AM,37.4,32.0,81,30.05,10.0,West,4.6,-,N/A,,Overcast,270,2011-11-30 07:41:00
1:52 AM,37.0,32.0,82,30.06,10.0,West,6.9,-,N/A,,Overcast,280,2011-11-30 07:52:00
2:52 AM,36.0,30.0,79,30.07,10.0,NW,12.7,-,N/A,,Mostly Cloudy,310,2011-11-30 08:52:00
3:52 AM,34.0,28.0,79,30.08,10.0,NW,11.5,-,N/A,,Overcast,320,2011-11-30 09:52:00
4:19 AM,33.8,26.6,75,30.08,10.0,NW,10.4,-,N/A,,Overcast,310,2011-11-30 10:19:00
4:52 AM,32.0,27.0,82,30.10,10.0,NW,9.2,-,N/A,,Partly Cloudy,310,2011-11-30 10:52:00
5:34 AM,32.0,26.6,80,30.11,10.0,WNW,6.9,-,N/A,,Mostly Cloudy,300,2011-11-30 11:34:00
5:52 AM,32.0,27.0,82,30.13,10.0,West,5.8,-,N/A,,Overcast,280,2011-11-30 11:52:00
6:50 AM,30.2,26.6,86,30.15,10.0,WNW,5.8,-,N/A,,Scattered Clouds,290,2011-11-30 12:50:00
6:52 AM,30.0,26.1,85,30.17,10.0,WNW,6.9,-,N/A,,Scattered Clouds,290,2011-11-30 12:52:00
7:52 AM,33.1,26.1,75,30.18,10.0,NW,8.1,-,N/A,,Clear,310,2011-11-30 13:52:00
8:52 AM,35.1,26.1,70,30.20,10.0,NNW,11.5,-,N/A,,Clear,340,2011-11-30 14:52:00
10:52 AM,37.9,25.0,60,30.20,10.0,Variable,3.5,-,N/A,,Clear,0,2011-11-30 16:52:00
11:52 AM,39.9,26.1,58,30.17,10.0,Calm,Calm,-,N/A,,Clear,0,2011-11-30 17:52:00
12:52 PM,41.0,25.0,53,30.15,10.0,Calm,Calm,-,N/A,,Clear,0,2011-11-30 18:52:00
2:52 PM,44.1,24.1,45,30.15,10.0,NNE,4.6,-,N/A,,Clear,30,2011-11-30 20:52:00
3:52 PM,43.0,27.0,53,30.17,10.0,North,6.9,-,N/A,,Clear,10,2011-11-30 21:52:00
4:52 PM,37.9,26.1,62,30.18,10.0,NNE,3.5,-,N/A,,Clear,30,2011-11-30 22:52:00
5:52 PM,37.0,26.1,65,30.19,10.0,Calm,Calm,-,N/A,,Clear,0,2011-11-30 23:52:00
6:52 PM,35.1,27.0,72,30.22,10.0,Calm,Calm,-,N/A,,Clear,0,2011-12-01 00:52:00
7:52 PM,32.0,27.0,82,30.24,10.0,Calm,Calm,-,N/A,,Clear,0,2011-12-01 01:52:00
8:52 PM,30.0,26.1,85,30.25,10.0,Calm,Calm,-,N/A,,Clear,0,2011-12-01 02:52:00
9:52 PM,28.0,26.1,92,30.23,10.0,Calm,Calm,-,N/A,,Clear,0,2011-12-01 03:52:00
10:52 PM,28.9,26.1,89,30.24,10.0,Calm,Calm,-,N/A,,Clear,0,2011-12-01 04:52:00
11:52 PM,27.0,25.0,92,30.25,10.0,Calm,Calm,-,N/A,,Clear,0,2011-12-01 05:52:00